Weather in Kazantsevo

Russia / Novosibirsk Oblast     55°04′37″N   77°41′02″E
temp.,
°C
wind,
m/s
gust,
m/s
humid.,
%
clouds,
%
prec.,
mm/h
press.,
hPa
HPBL,
m
1 march, mon
mon101:00−14e71195100 0.3 1015253
04:00−11e81294100 1.1 1011308
07:00−10ene81294100 2.3 1008294
10:00−10ene71194100 0.6 1007317
13:00−8ne6994100 1.5 1006332
16:00−9ne6894100 0.9 1007311
19:00−9nne5894100 1.7 1008310
22:00−13n579497 0.2 1009106
2 march, tue
tue201:00−17n459694 0.3 101229
04:00−19nnw349883 0.0 101420
07:00−20nnw2310084 0.1 101620
10:00−21nw1210079 0.0 101720
13:00−17wsw129187 0.0 1017227
16:00−14sw2388100 0.1 1017358
19:00−15sw2296100 0.3 101622
22:00−15ssw229591 0.1 101620
3 march, wed
wed301:00−16ssw229695 0.1 101620
04:00−15ssw229696 0.1 101621
07:00−15ssw239697 0.3 101624
10:00−15ssw339493 0.1 1016120
13:00−14ssw459292 0.1 1017282
16:00−12ssw5791100 0.0 1017370
19:00−14ssw6896100 0.1 1017125
22:00−16s61095100 0.0 1017209
4 march, thu
thu401:00−13s7119499 0.2 1017293
04:00−11ssw71194100 0.5 1015380
07:00−10s71193100 0.9 1014273
10:00−9s81393100 0.2 1013368
13:00−7s91291100 0.7 1013533
16:00−4s91392100 0.4 1011641
19:00−3s91493100 0.9 1011536
22:00−3ssw91688100 0.1 1010466
5 march, fri
fri501:00−6s71290100 0.1 1009160
04:00−6s61090100 0.0 1006184
07:00−7sse6995100 0.1 1004220
10:00−6ssw5794100 0.9 1004283
13:00−3w8119199 1.1 1007618
16:00−4wsw10138395 0.1 1011709
19:00−7sw10168078 0.1 1012470
22:00−6sw121993100 0.1 1013729